User: anonymous   Login
Location: Decatur(IL)
(39.8400°N, 88.9550°W)
Time: 11:30:24
(UTC-05:00)
Language:

Cosmos 2242 Rocket - Orbit

View from above orbital plane
View from above orbital plane
View from above satellite
View from above satellite

Ground track
Ground track

The orbit data is extracted from the following two-line orbital elements,

1 22627U 93024B   18114.19672045  .00000093  00000-0  95727-5 0  9993
2 22627  82.5230 171.3183 0024419  37.1493 323.1403 14.78114859348089
Epoch (UTC): 24 April 2018 04:43:16
Eccentricity: 0.0024419
inclination: 82.5230°
perigee height: 618 km
apogee height: 652 km
right ascension of ascending node: 171.3183°
argument of perigee: 37.1493°
revolutions per day: 14.78114859
mean anomaly at epoch: 323.1403°
orbit number at epoch: 34808

The dashed part of the orbit path shows where the satellite is in the earth's shadow,  

DLR